Weather History for Clinton-Sherman, OK

Change the Weather History Date:

Saturday, July 20, 2013

  Actual Average Record
Temperature  
Mean Temperature 83 °F -  
Max Temperature 96 °F 95 °F 108 °F (2003)
Min Temperature 71 °F 70 °F 64 °F (2014)
Cooling Degree Days 18    
Growing Degree Days 33 (Base 50)    
Moisture  
Dew Point 64 °F    
Average Humidity 57    
Maximum Humidity 93    
Minimum Humidity 31    
Precipitation  
Precipitation 0.00 in - - ()
Sea Level Pressure  
Sea Level Pressure 29.87 in    
Wind  
Wind Speed 11 mph (SSW)    
Max Wind Speed 17 mph    
Max Gust Speed 28 mph    
Visibility 10 miles    
Events      
Averages and records for this station are not official NWS values.
T = Trace of Precipitation, MM = Missing Value Source: NWS Daily Summary

Daily Weather History Graph

Daily Weather History Graph

Search for Another Location

Airport:

Trip Planner

Search our weather history database for the weather conditions in past years. The results will help you decide how hot, cold, wet, or windy it might be!

Date:

Astronomy

Jul. 20, 2013 Rise Set
Actual Time 6:36 AM CDT 8:49 PM CDT
Civil Twilight 6:08 AM CDT 9:17 PM CDT
Nautical Twilight 5:32 AM CDT 9:52 PM CDT
Astronomical Twilight 4:54 AM CDT 10:31 PM CDT
Moon 6:54 PM CDT (7/20) 4:18 AM CDT (7/20)
Length of Visible Light 15h 09m
Length of Day
14h 12m
Waxing Gibbous, 94% of the Moon is Illuminated
Jul 20
Waxing Gibbous
Jul 22
Full
Jul 29
Last Quarter
Aug 6
New
Aug 14
First Quarter

Hourly Weather History & Observations

Time (CDT) Temp. Heat Index Dew Point Humidity Pressure Visibility Wind Dir Wind Speed Gust Speed Precip Events Conditions
12:53 AM 75.9 °F - 64.9 °F 69% 29.94 in 10.0 mi South 8.1 mph - N/A   Clear
1:53 AM 73.9 °F - 66.0 °F 76% 29.94 in 10.0 mi SSE 9.2 mph - N/A   Clear
2:53 AM 73.0 °F - 68.0 °F 84% 29.93 in 10.0 mi South 9.2 mph - N/A   Clear
3:53 AM 73.0 °F - 68.0 °F 84% 29.92 in 10.0 mi South 10.4 mph - N/A   Clear
4:53 AM 72.0 °F - 69.1 °F 91% 29.92 in 10.0 mi South 9.2 mph - N/A   Clear
5:53 AM 72.0 °F - 69.1 °F 91% 29.91 in 10.0 mi South 8.1 mph - N/A   Clear
6:53 AM 71.1 °F - 69.1 °F 93% 29.92 in 10.0 mi South 6.9 mph - N/A   Clear
7:53 AM 73.9 °F - 69.1 °F 85% 29.91 in 10.0 mi South 10.4 mph - N/A   Clear
8:53 AM 78.1 °F - 68.0 °F 71% 29.91 in 10.0 mi SSW 11.5 mph - N/A   Clear
9:53 AM 82.9 °F 85.4 °F 66.9 °F 58% 29.92 in 10.0 mi SSW 11.5 mph - N/A   Clear
10:53 AM 86.0 °F 87.3 °F 64.0 °F 48% 29.91 in 10.0 mi SW 15.0 mph - N/A   Clear
11:53 AM 89.1 °F 89.3 °F 62.1 °F 40% 29.90 in 10.0 mi SSW 16.1 mph 23.0 mph N/A   Clear
12:53 PM 91.0 °F 91.5 °F 62.1 °F 38% 29.89 in 10.0 mi SW 15.0 mph 24.2 mph N/A   Clear
1:53 PM 93.0 °F 93.0 °F 61.0 °F 34% 29.87 in 10.0 mi SSW 16.1 mph 23.0 mph N/A   Clear
2:53 PM 93.9 °F 93.2 °F 59.0 °F 31% 29.85 in 10.0 mi South 17.3 mph 24.2 mph N/A   Clear
3:53 PM 95.0 °F 94.8 °F 60.1 °F 31% 29.84 in 10.0 mi SSW 17.3 mph 27.6 mph N/A   Partly Cloudy
4:53 PM 93.9 °F 93.2 °F 59.0 °F 31% 29.81 in 10.0 mi SSW 16.1 mph 25.3 mph N/A   Scattered Clouds
5:53 PM 93.0 °F 92.0 °F 57.9 °F 31% 29.80 in 10.0 mi SW 17.3 mph - N/A   Scattered Clouds
6:53 PM 91.0 °F 90.0 °F 57.9 °F 33% 29.80 in 10.0 mi SW 15.0 mph 23.0 mph N/A   Partly Cloudy
7:53 PM 91.0 °F 90.0 °F 57.9 °F 33% 29.78 in 10.0 mi SW 15.0 mph - N/A   Clear
8:53 PM 86.0 °F 86.1 °F 61.0 °F 43% 29.81 in 10.0 mi SSW 6.9 mph - N/A   Clear
9:53 PM 82.9 °F 84.0 °F 63.0 °F 51% 29.82 in 10.0 mi South 6.9 mph - N/A   Clear
10:53 PM 81.0 °F 82.5 °F 64.0 °F 56% 29.83 in 10.0 mi SSE 9.2 mph - N/A   Clear
11:53 PM 81.0 °F 82.7 °F 64.9 °F 58% 29.84 in 10.0 mi South 15.0 mph - N/A   Clear